Time,TemperatureF,DewpointF,PressureIn,WindDirection,WindDirectionDegrees,WindSpeedMPH,WindSpeedGustMPH,Humidity,HourlyPrecipIn,Conditions,Clouds,dailyrainin,SoftwareType,DateUTC
2013-03-17 00:00:00,68.8,57.4,30.30,SSE,163,13.0,24.0,67,0.00,,,0.00,Weather View 32 v70,2013-03-17 05:00:00,
2013-03-17 00:05:00,68.5,57.1,30.30,South,186,10.0,24.0,67,0.00,,,0.00,Weather View 32 v70,2013-03-17 05:05:00,
2013-03-17 00:10:00,68.3,57.3,30.30,SE,141,17.0,24.0,68,0.00,,,0.00,Weather View 32 v70,2013-03-17 05:10:00,
2013-03-17 00:15:00,68.3,57.7,30.30,SSE,163,14.0,24.0,69,0.00,,,0.00,Weather View 32 v70,2013-03-17 05:15:00,
2013-03-17 00:20:00,68.2,58.0,30.30,SSE,163,10.0,24.0,70,0.00,,,0.00,Weather View 32 v70,2013-03-17 05:20:00,
2013-03-17 00:25:00,68.0,57.8,30.30,South,186,11.0,24.0,70,0.00,,,0.00,Weather View 32 v70,2013-03-17 05:25:00,
2013-03-17 00:30:00,67.8,58.0,30.30,South,186,12.0,24.0,71,0.00,,,0.00,Weather View 32 v70,2013-03-17 05:30:00,
2013-03-17 00:35:00,67.7,57.9,30.30,South,186,14.0,24.0,71,0.00,,,0.00,Weather View 32 v70,2013-03-17 05:35:00,
2013-03-17 00:40:00,67.5,58.1,30.29,South,186,16.0,24.0,72,0.00,,,0.00,Weather View 32 v70,2013-03-17 05:40:00,
2013-03-17 00:45:00,67.3,57.9,30.30,SSE,163,9.0,24.0,72,0.00,,,0.00,Weather View 32 v70,2013-03-17 05:45:00,
2013-03-17 00:50:00,67.1,58.1,30.30,South,186,12.0,24.0,73,0.00,,,0.00,Weather View 32 v70,2013-03-17 05:50:00,
2013-03-17 00:55:00,67.0,58.4,30.30,SE,141,10.0,24.0,74,0.00,,,0.00,Weather View 32 v70,2013-03-17 05:55:00,
2013-03-17 01:00:00,66.8,58.2,30.30,SSW,208,6.0,24.0,74,0.00,,,0.00,Weather View 32 v70,2013-03-17 06:00:00,
2013-03-17 01:05:00,66.6,58.4,30.30,South,186,8.0,24.0,75,0.00,,,0.00,Weather View 32 v70,2013-03-17 06:05:00,
2013-03-17 01:10:00,66.4,58.2,30.30,SSW,208,8.0,24.0,75,0.00,,,0.00,Weather View 32 v70,2013-03-17 06:10:00,
2013-03-17 01:15:00,66.4,58.6,30.31,SSE,163,14.0,24.0,76,0.00,,,0.00,Weather View 32 v70,2013-03-17 06:15:00,
2013-03-17 01:20:00,66.4,58.9,30.30,South,186,8.0,25.0,77,0.00,,,0.00,Weather View 32 v70,2013-03-17 06:20:00,
2013-03-17 01:25:00,66.4,58.9,30.31,SE,141,13.0,25.0,77,0.00,,,0.00,Weather View 32 v70,2013-03-17 06:25:00,
2013-03-17 01:30:00,66.5,59.0,30.31,South,186,16.0,25.0,77,0.00,,,0.00,Weather View 32 v70,2013-03-17 06:30:00,
2013-03-17 01:35:00,66.6,59.1,30.32,South,186,26.0,26.0,77,0.00,,,0.00,Weather View 32 v70,2013-03-17 06:35:00,
2013-03-17 01:40:00,66.6,59.1,30.32,South,186,18.0,26.0,77,0.00,,,0.00,Weather View 32 v70,2013-03-17 06:40:00,
2013-03-17 01:45:00,66.6,59.5,30.32,South,186,13.0,26.0,78,0.00,,,0.00,Weather View 32 v70,2013-03-17 06:45:00,
2013-03-17 01:50:00,66.6,59.5,30.32,SSW,208,10.0,26.0,78,0.00,,,0.00,Weather View 32 v70,2013-03-17 06:50:00,
2013-03-17 01:55:00,66.5,59.4,30.32,South,186,10.0,26.0,78,0.00,,,0.00,Weather View 32 v70,2013-03-17 06:55:00,
2013-03-17 02:00:00,66.6,59.5,30.32,SSE,163,16.0,26.0,78,0.00,,,0.00,Weather View 32 v70,2013-03-17 07:00:00,
2013-03-17 02:05:00,66.6,59.5,30.32,SSE,163,13.0,26.0,78,0.00,,,0.00,Weather View 32 v70,2013-03-17 07:05:00,
2013-03-17 02:10:00,66.7,59.6,30.31,South,186,16.0,26.0,78,0.00,,,0.00,Weather View 32 v70,2013-03-17 07:10:00,
2013-03-17 02:15:00,66.7,60.0,30.31,South,186,14.0,26.0,79,0.00,,,0.00,Weather View 32 v70,2013-03-17 07:15:00,
2013-03-17 02:20:00,66.7,59.6,30.31,South,186,15.0,26.0,78,0.00,,,0.00,Weather View 32 v70,2013-03-17 07:20:00,
2013-03-17 02:25:00,66.8,60.1,30.31,South,186,12.0,26.0,79,0.00,,,0.00,Weather View 32 v70,2013-03-17 07:25:00,
2013-03-17 02:30:00,66.8,60.1,30.31,SSW,208,10.0,26.0,79,0.00,,,0.00,Weather View 32 v70,2013-03-17 07:30:00,
2013-03-17 02:35:00,66.8,60.1,30.31,South,186,11.0,26.0,79,0.00,,,0.00,Weather View 32 v70,2013-03-17 07:35:00,
2013-03-17 02:40:00,66.8,60.1,30.31,South,186,12.0,25.0,79,0.00,,,0.00,Weather View 32 v70,2013-03-17 07:40:00,
2013-03-17 02:45:00,66.8,60.1,30.31,SSW,208,9.0,25.0,79,0.00,,,0.00,Weather View 32 v70,2013-03-17 07:45:00,
2013-03-17 02:50:00,66.8,60.1,30.31,South,186,11.0,25.0,79,0.00,,,0.00,Weather View 32 v70,2013-03-17 07:50:00,
2013-03-17 02:56:00,66.8,60.1,30.30,SSW,208,10.0,25.0,79,0.00,,,0.00,Weather View 32 v70,2013-03-17 07:56:00,
2013-03-17 03:01:00,66.9,59.8,30.31,SSW,208,9.0,25.0,78,0.00,,,0.00,Weather View 32 v70,2013-03-17 08:01:00,
2013-03-17 03:06:00,66.9,60.2,30.30,SE,141,16.0,25.0,79,0.00,,,0.00,Weather View 32 v70,2013-03-17 08:06:00,
2013-03-17 03:11:00,66.9,60.2,30.30,SSW,208,15.0,25.0,79,0.00,,,0.00,Weather View 32 v70,2013-03-17 08:11:00,
2013-03-17 03:16:00,67.0,60.2,30.30,South,186,9.0,25.0,79,0.00,,,0.00,Weather View 32 v70,2013-03-17 08:16:00,
2013-03-17 03:21:00,67.0,60.2,30.30,SSW,208,11.0,25.0,79,0.00,,,0.00,Weather View 32 v70,2013-03-17 08:21:00,
2013-03-17 03:26:00,66.9,60.2,30.31,South,186,9.0,25.0,79,0.00,,,0.00,Weather View 32 v70,2013-03-17 08:26:00,
2013-03-17 03:31:00,66.9,60.2,30.30,SSW,208,9.0,25.0,79,0.00,,,0.00,Weather View 32 v70,2013-03-17 08:31:00,
2013-03-17 03:36:00,67.0,60.2,30.30,SSW,208,8.0,25.0,79,0.00,,,0.00,Weather View 32 v70,2013-03-17 08:36:00,
2013-03-17 03:41:00,66.9,60.2,30.30,SSE,163,14.0,25.0,79,0.00,,,0.00,Weather View 32 v70,2013-03-17 08:41:00,
2013-03-17 03:46:00,66.8,60.1,30.30,South,186,8.0,25.0,79,0.00,,,0.00,Weather View 32 v70,2013-03-17 08:46:00,
2013-03-17 03:51:00,66.8,60.1,30.30,South,186,13.0,25.0,79,0.00,,,0.00,Weather View 32 v70,2013-03-17 08:51:00,
2013-03-17 03:56:00,66.8,60.4,30.30,South,186,16.0,25.0,80,0.00,,,0.00,Weather View 32 v70,2013-03-17 08:56:00,
2013-03-17 04:01:00,66.7,60.3,30.29,South,186,6.0,21.0,80,0.00,,,0.00,Weather View 32 v70,2013-03-17 09:01:00,
2013-03-17 04:06:00,66.8,60.4,30.29,SSW,208,13.0,21.0,80,0.00,,,0.00,Weather View 32 v70,2013-03-17 09:06:00,
2013-03-17 04:12:00,66.7,60.3,30.30,SSE,163,11.0,21.0,80,0.00,,,0.00,Weather View 32 v70,2013-03-17 09:12:00,
2013-03-17 04:17:00,66.7,60.3,30.30,South,186,10.0,21.0,80,0.00,,,0.00,Weather View 32 v70,2013-03-17 09:17:00,
2013-03-17 04:22:00,66.7,60.3,30.30,SSW,208,6.0,21.0,80,0.00,,,0.00,Weather View 32 v70,2013-03-17 09:22:00,
2013-03-17 04:27:00,66.7,60.3,30.30,SSW,208,11.0,19.0,80,0.00,,,0.00,Weather View 32 v70,2013-03-17 09:27:00,
2013-03-17 04:32:00,66.7,60.7,30.29,SSE,163,13.0,20.0,81,0.00,,,0.00,Weather View 32 v70,2013-03-17 09:32:00,
2013-03-17 04:37:00,66.6,60.6,30.30,SSW,208,13.0,20.0,81,0.00,,,0.00,Weather View 32 v70,2013-03-17 09:37:00,
2013-03-17 04:42:00,66.5,60.5,30.30,SSW,208,10.0,20.0,81,0.00,,,0.00,Weather View 32 v70,2013-03-17 09:42:00,
2013-03-17 04:47:00,66.4,60.4,30.30,South,186,10.0,20.0,81,0.00,,,0.00,Weather View 32 v70,2013-03-17 09:47:00,
2013-03-17 04:52:00,66.4,60.4,30.30,SSW,208,12.0,20.0,81,0.00,,,0.00,Weather View 32 v70,2013-03-17 09:52:00,
2013-03-17 04:57:00,66.3,60.6,30.30,SSE,163,8.0,20.0,82,0.00,,,0.00,Weather View 32 v70,2013-03-17 09:57:00,
2013-03-17 05:02:00,66.1,60.4,30.30,SSW,208,8.0,20.0,82,0.00,,,0.00,Weather View 32 v70,2013-03-17 10:02:00,
2013-03-17 05:07:00,66.1,60.4,30.31,SSW,208,9.0,20.0,82,0.00,,,0.00,Weather View 32 v70,2013-03-17 10:07:00,
2013-03-17 05:13:00,66.1,60.4,30.31,South,186,11.0,20.0,82,0.00,,,0.00,Weather View 32 v70,2013-03-17 10:13:00,
2013-03-17 05:18:00,66.0,60.3,30.30,SSW,208,9.0,20.0,82,0.00,,,0.00,Weather View 32 v70,2013-03-17 10:18:00,
2013-03-17 05:23:00,65.9,60.6,30.30,SSE,163,8.0,20.0,83,0.00,,,0.00,Weather View 32 v70,2013-03-17 10:23:00,
2013-03-17 05:28:00,65.9,60.6,30.31,South,186,9.0,20.0,83,0.00,,,0.00,Weather View 32 v70,2013-03-17 10:28:00,
2013-03-17 05:33:00,65.8,60.5,30.31,SSW,208,9.0,19.0,83,0.00,,,0.00,Weather View 32 v70,2013-03-17 10:33:00,
2013-03-17 05:38:00,65.8,60.5,30.31,South,186,8.0,19.0,83,0.00,,,0.00,Weather View 32 v70,2013-03-17 10:38:00,
2013-03-17 05:43:00,65.8,60.5,30.31,SSW,208,11.0,19.0,83,0.00,,,0.00,Weather View 32 v70,2013-03-17 10:43:00,
2013-03-17 05:48:00,65.7,60.4,30.31,SSE,163,8.0,19.0,83,0.00,,,0.00,Weather View 32 v70,2013-03-17 10:48:00,
2013-03-17 05:53:00,65.7,60.7,30.31,South,186,10.0,19.0,84,0.00,,,0.00,Weather View 32 v70,2013-03-17 10:53:00,
2013-03-17 05:58:00,65.6,60.6,30.31,SSE,163,8.0,19.0,84,0.00,,,0.00,Weather View 32 v70,2013-03-17 10:58:00,
2013-03-17 06:03:00,65.6,60.6,30.31,SSE,163,10.0,19.0,84,0.00,,,0.00,Weather View 32 v70,2013-03-17 11:03:00,
2013-03-17 06:08:00,65.5,60.9,30.31,South,186,9.0,15.0,85,0.00,,,0.00,Weather View 32 v70,2013-03-17 11:08:00,
2013-03-17 06:13:00,65.4,60.8,30.31,SSE,163,8.0,14.0,85,0.00,,,0.00,Weather View 32 v70,2013-03-17 11:13:00,
2013-03-17 06:18:00,65.5,60.9,30.31,SE,141,8.0,14.0,85,0.00,,,0.00,Weather View 32 v70,2013-03-17 11:18:00,
2013-03-17 06:23:00,65.4,60.8,30.31,SSE,163,14.0,14.0,85,0.00,,,0.00,Weather View 32 v70,2013-03-17 11:23:00,
2013-03-17 06:28:00,65.3,61.0,30.31,SSE,163,7.0,16.0,86,0.00,,,0.00,Weather View 32 v70,2013-03-17 11:28:00,
2013-03-17 06:33:00,65.3,61.0,30.31,SE,141,10.0,16.0,86,0.00,,,0.00,Weather View 32 v70,2013-03-17 11:33:00,
2013-03-17 06:38:00,65.3,61.0,30.32,SSW,208,10.0,16.0,86,0.00,,,0.00,Weather View 32 v70,2013-03-17 11:38:00,
2013-03-17 06:43:00,65.3,61.0,30.32,South,186,8.0,16.0,86,0.00,,,0.00,Weather View 32 v70,2013-03-17 11:43:00,
2013-03-17 06:48:00,65.2,60.9,30.32,SE,141,6.0,16.0,86,0.00,,,0.00,Weather View 32 v70,2013-03-17 11:48:00,
2013-03-17 06:53:00,65.2,60.9,30.32,South,186,5.0,16.0,86,0.00,,,0.00,Weather View 32 v70,2013-03-17 11:53:00,
2013-03-17 06:58:00,65.1,60.8,30.32,SE,141,6.0,16.0,86,0.00,,,0.00,Weather View 32 v70,2013-03-17 11:58:00,
2013-03-17 07:03:00,65.2,61.2,30.32,SSE,163,7.0,16.0,87,0.00,,,0.00,Weather View 32 v70,2013-03-17 12:03:00,
2013-03-17 07:08:00,65.2,61.2,30.32,SSE,163,8.0,16.0,87,0.00,,,0.00,Weather View 32 v70,2013-03-17 12:08:00,
2013-03-17 07:13:00,65.2,61.2,30.32,South,186,10.0,16.0,87,0.00,,,0.00,Weather View 32 v70,2013-03-17 12:13:00,
2013-03-17 07:18:00,65.3,61.0,30.32,SSE,163,5.0,16.0,86,0.00,,,0.00,Weather View 32 v70,2013-03-17 12:18:00,
2013-03-17 07:23:00,65.3,61.0,30.32,SSE,163,8.0,16.0,86,0.00,,,0.00,Weather View 32 v70,2013-03-17 12:23:00,
2013-03-17 07:28:00,65.2,60.9,30.32,South,186,6.0,16.0,86,0.00,,,0.00,Weather View 32 v70,2013-03-17 12:28:00,
2013-03-17 07:33:00,65.2,61.2,30.33,SSE,163,8.0,16.0,87,0.00,,,0.00,Weather View 32 v70,2013-03-17 12:33:00,
2013-03-17 07:38:00,65.2,61.2,30.33,SSE,163,8.0,14.0,87,0.00,,,0.00,Weather View 32 v70,2013-03-17 12:38:00,
2013-03-17 07:43:00,65.2,61.2,30.33,SSE,163,8.0,14.0,87,0.00,,,0.00,Weather View 32 v70,2013-03-17 12:43:00,
2013-03-17 07:48:00,65.1,61.1,30.33,SSE,163,7.0,14.0,87,0.00,,,0.00,Weather View 32 v70,2013-03-17 12:48:00,
2013-03-17 07:53:00,65.0,61.0,30.32,SSE,163,8.0,14.0,87,0.00,,,0.00,Weather View 32 v70,2013-03-17 12:53:00,
2013-03-17 07:58:00,65.0,61.0,30.33,SE,141,6.0,14.0,87,0.00,,,0.00,Weather View 32 v70,2013-03-17 12:58:00,
2013-03-17 08:03:00,64.9,60.9,30.33,SSE,163,5.0,14.0,87,0.00,,,0.00,Weather View 32 v70,2013-03-17 13:03:00,
2013-03-17 08:08:00,64.9,61.2,30.33,SSE,163,5.0,14.0,88,0.00,,,0.00,Weather View 32 v70,2013-03-17 13:08:00,
2013-03-17 08:13:00,64.9,61.2,30.33,SE,141,5.0,14.0,88,0.00,,,0.00,Weather View 32 v70,2013-03-17 13:13:00,
2013-03-17 08:18:00,64.8,61.2,30.33,SSE,163,6.0,11.0,88,0.00,,,0.00,Weather View 32 v70,2013-03-17 13:18:00,
2013-03-17 08:23:00,64.8,61.2,30.33,SE,141,6.0,11.0,88,0.00,,,0.00,Weather View 32 v70,2013-03-17 13:23:00,
2013-03-17 08:28:00,64.8,61.2,30.33,SE,141,8.0,12.0,88,0.00,,,0.00,Weather View 32 v70,2013-03-17 13:28:00,
2013-03-17 08:33:00,64.7,61.1,30.33,SE,141,5.0,12.0,88,0.00,,,0.00,Weather View 32 v70,2013-03-17 13:33:00,
2013-03-17 08:38:00,64.8,61.2,30.33,SE,141,7.0,12.0,88,0.00,,,0.00,Weather View 32 v70,2013-03-17 13:38:00,
2013-03-17 08:43:00,64.9,61.2,30.33,South,186,5.0,12.0,88,0.00,,,0.00,Weather View 32 v70,2013-03-17 13:43:00,
2013-03-17 08:48:00,64.9,61.2,30.34,SSE,163,6.0,12.0,88,0.00,,,0.00,Weather View 32 v70,2013-03-17 13:48:00,
2013-03-17 08:53:00,65.0,61.3,30.34,SSE,163,9.0,12.0,88,0.00,,,0.00,Weather View 32 v70,2013-03-17 13:53:00,
2013-03-17 08:58:00,65.0,61.3,30.33,SE,141,6.0,13.0,88,0.00,,,0.00,Weather View 32 v70,2013-03-17 13:58:00,
2013-03-17 09:03:00,65.0,61.3,30.33,South,186,8.0,14.0,88,0.00,,,0.00,Weather View 32 v70,2013-03-17 14:03:00,
2013-03-17 09:08:00,65.0,61.3,30.34,South,186,9.0,14.0,88,0.00,,,0.00,Weather View 32 v70,2013-03-17 14:08:00,
2013-03-17 09:13:00,65.0,61.3,30.34,SSE,163,7.0,14.0,88,0.00,,,0.00,Weather View 32 v70,2013-03-17 14:13:00,
2013-03-17 09:18:00,65.2,61.5,30.34,SSE,163,8.0,15.0,88,0.00,,,0.00,Weather View 32 v70,2013-03-17 14:18:00,
2013-03-17 09:23:00,65.3,61.6,30.34,South,186,8.0,15.0,88,0.00,,,0.00,Weather View 32 v70,2013-03-17 14:23:00,
2013-03-17 09:28:00,65.5,61.5,30.34,SE,141,7.0,15.0,87,0.00,,,0.00,Weather View 32 v70,2013-03-17 14:28:00,
2013-03-17 09:33:00,65.6,61.6,30.34,SSE,163,8.0,15.0,87,0.00,,,0.00,Weather View 32 v70,2013-03-17 14:33:00,
2013-03-17 09:38:00,65.7,61.4,30.34,SE,141,7.0,15.0,86,0.00,,,0.00,Weather View 32 v70,2013-03-17 14:38:00,
2013-03-17 09:43:00,66.0,61.7,30.34,ESE,118,8.0,15.0,86,0.00,,,0.00,Weather View 32 v70,2013-03-17 14:43:00,
2013-03-17 09:48:00,66.0,61.7,30.34,SSE,163,11.0,15.0,86,0.00,,,0.00,Weather View 32 v70,2013-03-17 14:48:00,
2013-03-17 09:53:00,66.2,61.5,30.34,SSE,163,12.0,16.0,85,0.00,,,0.00,Weather View 32 v70,2013-03-17 14:53:00,
2013-03-17 09:58:00,66.6,61.9,30.34,SE,141,5.0,16.0,85,0.00,,,0.00,Weather View 32 v70,2013-03-17 14:58:00,
2013-03-17 10:03:00,66.8,61.8,30.34,South,186,10.0,16.0,84,0.00,,,0.00,Weather View 32 v70,2013-03-17 15:03:00,
2013-03-17 10:08:00,67.1,61.4,30.34,SE,141,11.0,16.0,82,0.00,,,0.00,Weather View 32 v70,2013-03-17 15:08:00,
2013-03-17 10:13:00,66.8,61.1,30.34,SE,141,10.0,16.0,82,0.00,,,0.00,Weather View 32 v70,2013-03-17 15:13:00,
2013-03-17 10:18:00,66.9,61.6,30.34,SSE,163,10.0,17.0,83,0.00,,,0.00,Weather View 32 v70,2013-03-17 15:18:00,
2013-03-17 10:23:00,67.0,61.6,30.34,SSW,208,8.0,17.0,83,0.00,,,0.00,Weather View 32 v70,2013-03-17 15:23:00,
2013-03-17 10:28:00,67.0,61.3,30.35,SSW,208,8.0,17.0,82,0.00,,,0.00,Weather View 32 v70,2013-03-17 15:28:00,
2013-03-17 10:33:00,66.9,61.2,30.35,South,186,6.0,17.0,82,0.00,,,0.00,Weather View 32 v70,2013-03-17 15:33:00,
2013-03-17 10:38:00,66.9,61.2,30.35,SSW,208,7.0,17.0,82,0.00,,,0.00,Weather View 32 v70,2013-03-17 15:38:00,
2013-03-17 10:43:00,67.0,61.3,30.35,South,186,6.0,17.0,82,0.00,,,0.00,Weather View 32 v70,2013-03-17 15:43:00,
2013-03-17 10:48:00,67.2,61.5,30.35,SSW,208,6.0,17.0,82,0.00,,,0.00,Weather View 32 v70,2013-03-17 15:48:00,
2013-03-17 10:53:00,67.2,61.2,30.35,South,186,10.0,17.0,81,0.00,,,0.00,Weather View 32 v70,2013-03-17 15:53:00,
2013-03-17 10:58:00,67.2,61.2,30.35,SSW,208,8.0,17.0,81,0.00,,,0.00,Weather View 32 v70,2013-03-17 15:58:00,
2013-03-17 11:03:00,67.2,61.2,30.35,South,186,6.0,17.0,81,0.00,,,0.00,Weather View 32 v70,2013-03-17 16:03:00,
2013-03-17 11:08:00,67.5,61.4,30.35,SSW,208,8.0,17.0,81,0.00,,,0.00,Weather View 32 v70,2013-03-17 16:08:00,
2013-03-17 11:13:00,67.7,61.3,30.34,SSE,163,13.0,18.0,80,0.00,,,0.00,Weather View 32 v70,2013-03-17 16:13:00,
2013-03-17 11:18:00,68.0,61.6,30.34,South,186,11.0,18.0,80,0.00,,,0.00,Weather View 32 v70,2013-03-17 16:18:00,
2013-03-17 11:23:00,68.0,61.2,30.33,South,186,9.0,18.0,79,0.00,,,0.00,Weather View 32 v70,2013-03-17 16:23:00,
2013-03-17 11:28:00,68.7,61.5,30.33,South,186,10.0,19.0,78,0.00,,,0.00,Weather View 32 v70,2013-03-17 16:28:00,
2013-03-17 11:33:00,68.9,61.0,30.33,SSW,208,15.0,19.0,76,0.00,,,0.00,Weather View 32 v70,2013-03-17 16:33:00,
2013-03-17 11:38:00,69.7,61.8,30.32,SSW,208,11.0,19.0,76,0.00,,,0.00,Weather View 32 v70,2013-03-17 16:38:00,
2013-03-17 11:43:00,70.0,60.9,30.32,SSW,208,10.0,19.0,73,0.00,,,0.00,Weather View 32 v70,2013-03-17 16:43:00,
2013-03-17 11:48:00,70.1,61.0,30.32,South,186,10.0,21.0,73,0.00,,,0.00,Weather View 32 v70,2013-03-17 16:48:00,
2013-03-17 11:53:00,70.7,61.6,30.32,South,186,13.0,23.0,73,0.00,,,0.00,Weather View 32 v70,2013-03-17 16:53:00,
2013-03-17 11:58:00,70.7,60.8,30.32,South,186,12.0,23.0,71,0.00,,,0.00,Weather View 32 v70,2013-03-17 16:58:00,
2013-03-17 12:03:00,70.6,59.9,30.31,South,186,13.0,23.0,69,0.00,,,0.00,Weather View 32 v70,2013-03-17 17:03:00,
2013-03-17 12:08:00,70.6,59.9,30.31,SSW,208,10.0,23.0,69,0.00,,,0.00,Weather View 32 v70,2013-03-17 17:08:00,
2013-03-17 12:13:00,71.8,61.5,30.31,SSE,163,12.0,23.0,70,0.00,,,0.00,Weather View 32 v70,2013-03-17 17:13:00,
2013-03-17 12:18:00,71.7,61.0,30.31,South,186,10.0,23.0,69,0.00,,,0.00,Weather View 32 v70,2013-03-17 17:18:00,
2013-03-17 12:23:00,71.2,60.5,30.31,South,186,12.0,23.0,69,0.00,,,0.00,Weather View 32 v70,2013-03-17 17:23:00,
2013-03-17 12:28:00,71.8,61.5,30.30,SSW,208,7.0,23.0,70,0.00,,,0.00,Weather View 32 v70,2013-03-17 17:28:00,
2013-03-17 12:33:00,71.7,60.1,30.30,South,186,10.0,23.0,67,0.00,,,0.00,Weather View 32 v70,2013-03-17 17:33:00,
2013-03-17 12:38:00,71.9,59.9,30.30,South,186,14.0,23.0,66,0.00,,,0.00,Weather View 32 v70,2013-03-17 17:38:00,
2013-03-17 12:43:00,72.4,59.9,30.31,SE,141,12.0,23.0,65,0.00,,,0.00,Weather View 32 v70,2013-03-17 17:43:00,
2013-03-17 12:48:00,71.8,59.4,30.30,South,186,12.0,23.0,65,0.00,,,0.00,Weather View 32 v70,2013-03-17 17:48:00,
2013-03-17 12:53:00,72.2,59.7,30.30,SSW,208,8.0,23.0,65,0.00,,,0.00,Weather View 32 v70,2013-03-17 17:53:00,
2013-03-17 12:58:00,71.5,59.1,30.30,WSW,253,13.0,23.0,65,0.00,,,0.00,Weather View 32 v70,2013-03-17 17:58:00,
2013-03-17 13:03:00,71.6,58.7,30.30,South,186,6.0,23.0,64,0.00,,,0.00,Weather View 32 v70,2013-03-17 18:03:00,
2013-03-17 13:08:00,71.7,59.3,30.30,SW,231,13.0,23.0,65,0.00,,,0.00,Weather View 32 v70,2013-03-17 18:08:00,
2013-03-17 13:13:00,71.4,59.0,30.30,SW,231,13.0,23.0,65,0.00,,,0.00,Weather View 32 v70,2013-03-17 18:13:00,
2013-03-17 13:18:00,71.6,59.2,30.29,SW,231,8.0,23.0,65,0.00,,,0.00,Weather View 32 v70,2013-03-17 18:18:00,
2013-03-17 13:23:00,72.1,59.6,30.29,South,186,6.0,23.0,65,0.00,,,0.00,Weather View 32 v70,2013-03-17 18:23:00,
2013-03-17 13:28:00,72.5,59.6,30.29,South,186,10.0,23.0,64,0.00,,,0.00,Weather View 32 v70,2013-03-17 18:28:00,
2013-03-17 13:33:00,72.4,59.1,30.29,SW,231,16.0,23.0,63,0.00,,,0.00,Weather View 32 v70,2013-03-17 18:33:00,
2013-03-17 13:38:00,73.0,59.6,30.29,SW,231,14.0,23.0,63,0.00,,,0.00,Weather View 32 v70,2013-03-17 18:38:00,
2013-03-17 13:43:00,73.1,59.3,30.28,SW,231,11.0,23.0,62,0.00,,,0.00,Weather View 32 v70,2013-03-17 18:43:00,
2013-03-17 13:48:00,72.7,58.9,30.28,SSW,208,10.0,23.0,62,0.00,,,0.00,Weather View 32 v70,2013-03-17 18:48:00,
2013-03-17 13:53:00,72.6,58.8,30.28,SW,231,9.0,23.0,62,0.00,,,0.00,Weather View 32 v70,2013-03-17 18:53:00,
2013-03-17 13:58:00,72.5,59.1,30.28,WSW,253,10.0,23.0,63,0.00,,,0.00,Weather View 32 v70,2013-03-17 18:58:00,
2013-03-17 14:03:00,72.4,59.1,30.28,SSW,208,8.0,23.0,63,0.00,,,0.00,Weather View 32 v70,2013-03-17 19:03:00,
2013-03-17 14:08:00,72.2,58.9,30.28,SW,231,11.0,23.0,63,0.00,,,0.00,Weather View 32 v70,2013-03-17 19:08:00,
2013-03-17 14:13:00,72.0,58.7,30.27,SSW,208,6.0,23.0,63,0.00,,,0.00,Weather View 32 v70,2013-03-17 19:13:00,
2013-03-17 14:18:00,72.0,58.7,30.27,SW,231,13.0,23.0,63,0.00,,,0.00,Weather View 32 v70,2013-03-17 19:18:00,
2013-03-17 14:23:00,72.4,59.5,30.26,SSW,208,10.0,23.0,64,0.00,,,0.00,Weather View 32 v70,2013-03-17 19:23:00,
2013-03-17 14:28:00,72.3,59.0,30.26,SSW,208,12.0,23.0,63,0.00,,,0.00,Weather View 32 v70,2013-03-17 19:28:00,
2013-03-17 14:34:00,72.3,59.4,30.26,SSW,208,9.0,23.0,64,0.00,,,0.00,Weather View 32 v70,2013-03-17 19:34:00,
2013-03-17 14:39:00,72.3,59.0,30.26,SW,231,9.0,21.0,63,0.00,,,0.00,Weather View 32 v70,2013-03-17 19:39:00,
2013-03-17 14:44:00,71.2,57.5,30.26,WSW,253,11.0,21.0,62,0.00,,,0.00,Weather View 32 v70,2013-03-17 19:44:00,
2013-03-17 14:49:00,70.6,54.6,30.26,WNW,298,10.0,21.0,57,0.00,,,0.00,Weather View 32 v70,2013-03-17 19:49:00,
2013-03-17 14:54:00,70.4,53.4,30.26,WNW,298,8.0,21.0,55,0.00,,,0.00,Weather View 32 v70,2013-03-17 19:54:00,
2013-03-17 14:59:00,70.3,53.3,30.26,WNW,298,7.0,20.0,55,0.00,,,0.00,Weather View 32 v70,2013-03-17 19:59:00,
2013-03-17 15:04:00,69.1,51.2,30.26,WNW,298,12.0,18.0,53,0.00,,,0.00,Weather View 32 v70,2013-03-17 20:04:00,
2013-03-17 15:09:00,68.8,51.4,30.26,NW,321,11.0,18.0,54,0.00,,,0.00,Weather View 32 v70,2013-03-17 20:09:00,
2013-03-17 15:14:00,68.4,50.6,30.25,NW,321,14.0,18.0,53,0.00,,,0.00,Weather View 32 v70,2013-03-17 20:14:00,
2013-03-17 15:19:00,68.4,50.6,30.25,NNW,343,11.0,18.0,53,0.00,,,0.00,Weather View 32 v70,2013-03-17 20:19:00,
2013-03-17 15:24:00,68.4,50.0,30.25,NW,321,13.0,18.0,52,0.00,,,0.00,Weather View 32 v70,2013-03-17 20:24:00,
2013-03-17 15:29:00,68.7,50.3,30.25,NW,321,8.0,18.0,52,0.00,,,0.00,Weather View 32 v70,2013-03-17 20:29:00,
2013-03-17 15:34:00,68.8,49.9,30.25,NW,321,14.0,18.0,51,0.00,,,0.00,Weather View 32 v70,2013-03-17 20:34:00,
2013-03-17 15:39:00,69.2,50.8,30.24,WNW,298,8.0,18.0,52,0.00,,,0.00,Weather View 32 v70,2013-03-17 20:39:00,
2013-03-17 15:44:00,69.2,49.7,30.25,WNW,298,11.0,18.0,50,0.00,,,0.00,Weather View 32 v70,2013-03-17 20:44:00,
2013-03-17 15:49:00,69.5,50.0,30.25,WNW,298,7.0,18.0,50,0.00,,,0.00,Weather View 32 v70,2013-03-17 20:49:00,
2013-03-17 15:54:00,68.5,49.6,30.25,North,6,12.0,18.0,51,0.00,,,0.00,Weather View 32 v70,2013-03-17 20:54:00,
2013-03-17 15:59:00,68.7,49.8,30.24,NW,321,10.0,18.0,51,0.00,,,0.00,Weather View 32 v70,2013-03-17 20:59:00,
2013-03-17 16:04:00,68.8,49.9,30.24,NW,321,13.0,18.0,51,0.00,,,0.00,Weather View 32 v70,2013-03-17 21:04:00,
2013-03-17 16:09:00,69.8,50.8,30.24,NW,321,7.0,18.0,51,0.00,,,0.00,Weather View 32 v70,2013-03-17 21:09:00,
2013-03-17 16:14:00,69.8,50.8,30.24,NW,321,6.0,18.0,51,0.00,,,0.00,Weather View 32 v70,2013-03-17 21:14:00,
2013-03-17 16:19:00,69.0,50.1,30.24,NW,321,10.0,18.0,51,0.00,,,0.00,Weather View 32 v70,2013-03-17 21:19:00,
2013-03-17 16:24:00,69.5,50.5,30.24,West,276,7.0,17.0,51,0.00,,,0.00,Weather View 32 v70,2013-03-17 21:24:00,
2013-03-17 16:29:00,70.4,50.8,30.23,WSW,253,5.0,17.0,50,0.00,,,0.00,Weather View 32 v70,2013-03-17 21:29:00,
2013-03-17 16:34:00,70.3,50.2,30.23,West,276,9.0,16.0,49,0.00,,,0.00,Weather View 32 v70,2013-03-17 21:34:00,
2013-03-17 16:39:00,69.6,50.1,30.23,NW,321,10.0,16.0,50,0.00,,,0.00,Weather View 32 v70,2013-03-17 21:39:00,
2013-03-17 16:44:00,70.1,51.1,30.24,WNW,298,7.0,16.0,51,0.00,,,0.00,Weather View 32 v70,2013-03-17 21:44:00,
2013-03-17 16:49:00,70.5,51.4,30.23,WNW,298,8.0,16.0,51,0.00,,,0.00,Weather View 32 v70,2013-03-17 21:49:00,
2013-03-17 16:54:00,69.8,50.3,30.23,NW,321,8.0,16.0,50,0.00,,,0.00,Weather View 32 v70,2013-03-17 21:54:00,
2013-03-17 16:59:00,70.0,49.9,30.23,NW,321,11.0,16.0,49,0.00,,,0.00,Weather View 32 v70,2013-03-17 21:59:00,
2013-03-17 17:04:00,70.4,50.8,30.23,NW,321,6.0,16.0,50,0.00,,,0.00,Weather View 32 v70,2013-03-17 22:04:00,
2013-03-17 17:09:00,69.7,50.2,30.23,NNW,343,10.0,16.0,50,0.00,,,0.00,Weather View 32 v70,2013-03-17 22:09:00,
2013-03-17 17:14:00,69.8,50.8,30.23,NW,321,8.0,14.0,51,0.00,,,0.00,Weather View 32 v70,2013-03-17 22:14:00,
2013-03-17 17:19:00,69.9,50.4,30.23,West,276,6.0,13.0,50,0.00,,,0.00,Weather View 32 v70,2013-03-17 22:19:00,
2013-03-17 17:24:00,69.6,50.6,30.23,NW,321,8.0,13.0,51,0.00,,,0.00,Weather View 32 v70,2013-03-17 22:24:00,
2013-03-17 17:29:00,70.0,50.5,30.23,NW,321,11.0,13.0,50,0.00,,,0.00,Weather View 32 v70,2013-03-17 22:29:00,
2013-03-17 17:34:00,69.8,50.3,30.23,WNW,298,10.0,13.0,50,0.00,,,0.00,Weather View 32 v70,2013-03-17 22:34:00,
2013-03-17 17:39:00,69.8,50.8,30.23,WNW,298,5.0,13.0,51,0.00,,,0.00,Weather View 32 v70,2013-03-17 22:39:00,
2013-03-17 17:44:00,69.9,50.4,30.23,WNW,298,6.0,13.0,50,0.00,,,0.00,Weather View 32 v70,2013-03-17 22:44:00,
2013-03-17 17:49:00,69.7,50.7,30.23,NW,321,6.0,13.0,51,0.00,,,0.00,Weather View 32 v70,2013-03-17 22:49:00,
2013-03-17 17:54:00,69.6,50.6,30.23,NW,321,7.0,13.0,51,0.00,,,0.00,Weather View 32 v70,2013-03-17 22:54:00,
2013-03-17 17:59:00,69.5,50.5,30.23,NW,321,10.0,13.0,51,0.00,,,0.00,Weather View 32 v70,2013-03-17 22:59:00,
2013-03-17 18:04:00,69.6,50.6,30.23,NW,321,6.0,13.0,51,0.00,,,0.00,Weather View 32 v70,2013-03-17 23:04:00,
2013-03-17 18:09:00,69.7,50.7,30.23,NW,321,7.0,13.0,51,0.00,,,0.00,Weather View 32 v70,2013-03-17 23:09:00,
2013-03-17 18:14:00,69.8,50.8,30.23,NNW,343,6.0,13.0,51,0.00,,,0.00,Weather View 32 v70,2013-03-17 23:14:00,
2013-03-17 18:19:00,69.7,50.7,30.23,NW,321,5.0,13.0,51,0.00,,,0.00,Weather View 32 v70,2013-03-17 23:19:00,
2013-03-17 18:24:00,69.7,50.7,30.23,NNW,343,6.0,13.0,51,0.00,,,0.00,Weather View 32 v70,2013-03-17 23:24:00,
2013-03-17 18:29:00,69.5,50.5,30.24,NW,321,4.0,13.0,51,0.00,,,0.00,Weather View 32 v70,2013-03-17 23:29:00,
2013-03-17 18:34:00,69.3,50.3,30.24,WNW,298,5.0,13.0,51,0.00,,,0.00,Weather View 32 v70,2013-03-17 23:34:00,
2013-03-17 18:39:00,69.4,50.4,30.23,NW,321,5.0,13.0,51,0.00,,,0.00,Weather View 32 v70,2013-03-17 23:39:00,
2013-03-17 18:44:00,69.5,50.5,30.24,NW,321,7.0,13.0,51,0.00,,,0.00,Weather View 32 v70,2013-03-17 23:44:00,
2013-03-17 18:49:00,69.5,50.5,30.24,NNW,343,6.0,13.0,51,0.00,,,0.00,Weather View 32 v70,2013-03-17 23:49:00,
2013-03-17 18:54:00,69.7,51.2,30.24,North,6,3.0,13.0,52,0.00,,,0.00,Weather View 32 v70,2013-03-17 23:54:00,
2013-03-17 18:59:00,69.7,51.2,30.24,NW,321,6.0,13.0,52,0.00,,,0.00,Weather View 32 v70,2013-03-17 23:59:00,
2013-03-17 19:04:00,69.8,51.3,30.23,North,6,3.0,11.0,52,0.00,,,0.00,Weather View 32 v70,2013-03-18 00:04:00,
2013-03-17 19:09:00,69.7,51.2,30.23,NNW,343,3.0,11.0,52,0.00,,,0.00,Weather View 32 v70,2013-03-18 00:09:00,
2013-03-17 19:14:00,69.7,51.2,30.24,NNW,343,1.0,11.0,52,0.00,,,0.00,Weather View 32 v70,2013-03-18 00:14:00,
2013-03-17 19:19:00,69.6,51.1,30.24,NNW,343,0.0,10.0,52,0.00,,,0.00,Weather View 32 v70,2013-03-18 00:19:00,
2013-03-17 19:24:00,69.4,51.5,30.24,NNE,28,1.0,10.0,53,0.00,,,0.00,Weather View 32 v70,2013-03-18 00:24:00,
2013-03-17 19:29:00,69.0,51.1,30.24,NNE,28,2.0,10.0,53,0.00,,,0.00,Weather View 32 v70,2013-03-18 00:29:00,
2013-03-17 19:34:00,68.6,51.2,30.23,NNE,28,1.0,10.0,54,0.00,,,0.00,Weather View 32 v70,2013-03-18 00:34:00,
2013-03-17 19:39:00,68.3,51.0,30.23,NNE,28,3.0,9.0,54,0.00,,,0.00,Weather View 32 v70,2013-03-18 00:39:00,
2013-03-17 19:44:00,68.0,51.2,30.24,ENE,73,1.0,9.0,55,0.00,,,0.00,Weather View 32 v70,2013-03-18 00:44:00,
2013-03-17 19:49:00,67.9,51.1,30.24,NNE,28,2.0,8.0,55,0.00,,,0.00,Weather View 32 v70,2013-03-18 00:49:00,
2013-03-17 19:54:00,67.8,51.5,30.24,NE,51,3.0,7.0,56,0.00,,,0.00,Weather View 32 v70,2013-03-18 00:54:00,
2013-03-17 19:59:00,67.6,51.3,30.24,NE,51,2.0,7.0,56,0.00,,,0.00,Weather View 32 v70,2013-03-18 00:59:00,
2013-03-17 20:04:00,67.5,51.2,30.25,NNE,28,2.0,6.0,56,0.00,,,0.00,Weather View 32 v70,2013-03-18 01:04:00,
2013-03-17 20:09:00,67.3,51.5,30.25,NNE,28,1.0,6.0,57,0.00,,,0.00,Weather View 32 v70,2013-03-18 01:09:00,
2013-03-17 20:14:00,67.0,51.2,30.25,NNE,28,3.0,5.0,57,0.00,,,0.00,Weather View 32 v70,2013-03-18 01:14:00,
2013-03-17 20:19:00,66.7,51.4,30.24,NE,51,3.0,5.0,58,0.00,,,0.00,Weather View 32 v70,2013-03-18 01:19:00,
2013-03-17 20:24:00,65.9,51.1,30.24,ENE,73,3.0,5.0,59,0.00,,,0.00,Weather View 32 v70,2013-03-18 01:24:00,
2013-03-17 20:29:00,65.3,51.5,30.25,ENE,73,4.0,5.0,61,0.00,,,0.00,Weather View 32 v70,2013-03-18 01:29:00,
2013-03-17 20:34:00,65.5,51.7,30.26,NE,51,0.0,5.0,61,0.00,,,0.00,Weather View 32 v70,2013-03-18 01:34:00,
2013-03-17 20:39:00,65.5,51.2,30.25,NE,51,2.0,5.0,60,0.00,,,0.00,Weather View 32 v70,2013-03-18 01:39:00,
2013-03-17 20:44:00,65.4,51.6,30.25,ENE,73,2.0,5.0,61,0.00,,,0.00,Weather View 32 v70,2013-03-18 01:44:00,
2013-03-17 20:49:00,64.8,51.4,30.25,ENE,73,3.0,5.0,62,0.00,,,0.00,Weather View 32 v70,2013-03-18 01:49:00,
2013-03-17 20:54:00,64.6,51.3,30.25,NE,51,3.0,5.0,62,0.00,,,0.00,Weather View 32 v70,2013-03-18 01:54:00,
2013-03-17 20:59:00,64.7,51.3,30.25,NNE,28,0.0,5.0,62,0.00,,,0.00,Weather View 32 v70,2013-03-18 01:59:00,
2013-03-17 21:04:00,64.7,50.9,30.25,ENE,73,2.0,5.0,61,0.00,,,0.00,Weather View 32 v70,2013-03-18 02:04:00,
2013-03-17 21:09:00,64.7,50.9,30.25,ENE,73,1.0,5.0,61,0.00,,,0.00,Weather View 32 v70,2013-03-18 02:09:00,
2013-03-17 21:14:00,64.3,50.5,30.24,NE,51,2.0,5.0,61,0.00,,,0.00,Weather View 32 v70,2013-03-18 02:14:00,
2013-03-17 21:19:00,63.6,50.3,30.24,ENE,73,2.0,5.0,62,0.00,,,0.00,Weather View 32 v70,2013-03-18 02:19:00,
2013-03-17 21:24:00,63.5,50.6,30.25,ENE,73,3.0,5.0,63,0.00,,,0.00,Weather View 32 v70,2013-03-18 02:24:00,
2013-03-17 21:29:00,63.5,50.6,30.25,NNE,28,0.0,5.0,63,0.00,,,0.00,Weather View 32 v70,2013-03-18 02:29:00,
2013-03-17 21:34:00,63.3,50.5,30.25,NE,51,0.0,5.0,63,0.00,,,0.00,Weather View 32 v70,2013-03-18 02:34:00,
2013-03-17 21:39:00,63.0,50.2,30.25,ENE,73,1.0,4.0,63,0.00,,,0.00,Weather View 32 v70,2013-03-18 02:39:00,
2013-03-17 21:44:00,62.2,50.3,30.25,East,96,3.0,4.0,65,0.00,,,0.00,Weather View 32 v70,2013-03-18 02:44:00,
2013-03-17 21:49:00,62.2,50.7,30.26,ENE,73,1.0,4.0,66,0.00,,,0.00,Weather View 32 v70,2013-03-18 02:49:00,
2013-03-17 21:54:00,62.2,50.7,30.26,NNE,28,0.0,4.0,66,0.00,,,0.00,Weather View 32 v70,2013-03-18 02:54:00,
2013-03-17 21:59:00,61.8,50.7,30.26,NE,51,0.0,4.0,67,0.00,,,0.00,Weather View 32 v70,2013-03-18 02:59:00,
2013-03-17 22:04:00,61.2,50.5,30.26,North,6,0.0,4.0,68,0.00,,,0.00,Weather View 32 v70,2013-03-18 03:04:00,
2013-03-17 22:09:00,61.0,50.7,30.26,North,6,0.0,4.0,69,0.00,,,0.00,Weather View 32 v70,2013-03-18 03:09:00,
2013-03-17 22:14:00,60.7,50.8,30.27,NNE,28,0.0,4.0,70,0.00,,,0.00,Weather View 32 v70,2013-03-18 03:14:00,
2013-03-17 22:19:00,60.3,50.8,30.27,North,6,0.0,4.0,71,0.00,,,0.00,Weather View 32 v70,2013-03-18 03:19:00,
2013-03-17 22:24:00,60.5,51.0,30.27,NNE,28,5.0,6.0,71,0.00,,,0.00,Weather View 32 v70,2013-03-18 03:24:00,
2013-03-17 22:29:00,60.7,50.8,30.27,North,6,3.0,6.0,70,0.00,,,0.00,Weather View 32 v70,2013-03-18 03:29:00,
2013-03-17 22:34:00,60.8,50.9,30.28,North,6,1.0,6.0,70,0.00,,,0.00,Weather View 32 v70,2013-03-18 03:34:00,
2013-03-17 22:39:00,60.5,50.6,30.28,NNW,343,1.0,6.0,70,0.00,,,0.00,Weather View 32 v70,2013-03-18 03:39:00,
2013-03-17 22:44:00,61.1,50.8,30.28,North,6,3.0,6.0,69,0.00,,,0.00,Weather View 32 v70,2013-03-18 03:44:00,
2013-03-17 22:49:00,61.3,51.0,30.28,North,6,1.0,6.0,69,0.00,,,0.00,Weather View 32 v70,2013-03-18 03:49:00,
2013-03-17 22:54:00,61.5,50.8,30.28,North,6,3.0,6.0,68,0.00,,,0.00,Weather View 32 v70,2013-03-18 03:54:00,
2013-03-17 22:59:00,61.7,50.6,30.28,NNW,343,3.0,6.0,67,0.00,,,0.00,Weather View 32 v70,2013-03-18 03:59:00,
2013-03-17 23:00:00,61.7,50.6,30.29,NNW,343,2.0,6.0,67,0.00,,,0.00,Weather View 32 v70,2013-03-18 04:00:00,
2013-03-17 23:05:00,61.4,50.3,30.29,WNW,298,3.0,6.0,67,0.00,,,0.00,Weather View 32 v70,2013-03-18 04:05:00,
2013-03-17 23:10:00,61.1,50.0,30.28,North,6,3.0,6.0,67,0.00,,,0.00,Weather View 32 v70,2013-03-18 04:10:00,
2013-03-17 23:15:00,60.8,49.7,30.28,North,6,2.0,6.0,67,0.00,,,0.00,Weather View 32 v70,2013-03-18 04:15:00,
2013-03-17 23:20:00,60.4,50.2,30.28,NNE,28,2.0,6.0,69,0.00,,,0.00,Weather View 32 v70,2013-03-18 04:20:00,
2013-03-17 23:25:00,59.9,50.1,30.28,NNE,28,4.0,6.0,70,0.00,,,0.00,Weather View 32 v70,2013-03-18 04:25:00,
2013-03-17 23:30:00,59.6,50.2,30.28,NNE,28,3.0,6.0,71,0.00,,,0.00,Weather View 32 v70,2013-03-18 04:30:00,
2013-03-17 23:35:00,59.5,50.1,30.27,ENE,73,1.0,6.0,71,0.00,,,0.00,Weather View 32 v70,2013-03-18 04:35:00,
2013-03-17 23:40:00,59.3,49.9,30.27,NE,51,2.0,6.0,71,0.00,,,0.00,Weather View 32 v70,2013-03-18 04:40:00,
2013-03-17 23:45:00,59.2,50.2,30.27,NNE,28,1.0,6.0,72,0.00,,,0.00,Weather View 32 v70,2013-03-18 04:45:00,
2013-03-17 23:50:00,59.0,50.0,30.27,North,6,1.0,6.0,72,0.00,,,0.00,Weather View 32 v70,2013-03-18 04:50:00,
2013-03-17 23:55:00,58.9,50.2,30.28,North,6,1.0,6.0,73,0.00,,,0.00,Weather View 32 v70,2013-03-18 04:55:00,